Weather in Osecna

Czech Republic     50°41′46″N   14°54′55″E
В апреле 2022 года жителям России запретили посещать сайт meteo.paraplan.net по решению Генеральной прокуратуры. Аудитория сайта уменьшилась в 10 раз. Владельцы сайта не видят смысла в поддержке погодного сервера в таких условиях. Сайт будет закрыт в октябре.
temp.,
°C
wind,
m/s
gust,
m/s
humid.,
%
clouds,
%
prec.,
mm/h
press.,
hPa
HPBL,
m
4 october, tue
tue423:00+8wnw2594100 0.1 1022199
02:00+9wnw2997100 0.4 1021715
05:00+9nw31095100 0.5 1021838
08:00+9nw3993100 0.6 1022762
11:00+9nnw3788100 0.0 1023754
14:00+11nw3479100 0.1 1023747
17:00+12nnw12735 0.0 1023555
20:00+8ese22915 0.0 102323
5 october, wed
wed523:00+8se239316 0.0 102456
02:00+7se3593100 0.0 102493
05:00+7se3694100 0.0 1023127
08:00+8se3790100 0.0 1023185
11:00+11sse4775100 0.0 1023318
14:00+15sse4758100 0.0 1021578
17:00+15sse4965100 0.0 1020452
20:00+11se498592 0.0 1021189
6 october, thu
thu623:00+10se368985 0.0 1022113
02:00+9se349096 0.0 102368
05:00+9se3493100 0.0 102472
08:00+9se2492100 0.0 102589
11:00+13w288094 0.0 1027902
14:00+15wnw57585 0.2 10291460
17:00+14nw35588 0.0 1030864
20:00+9ne11765 0.0 103210
7 october, fri
fri723:00+8e11772 0.0 103310
02:00+7ese11775 0.0 103210
05:00+6ese22790 0.0 103116
08:00+7se22821 0.0 103039
11:00+13sse35575 0.0 1028490
14:00+16s46505 0.0 1025778
17:00+14sse36635 0.0 1022569
20:00+10se24775 0.0 102267
8 october, sat
sat823:00+10se358819 0.0 102278
02:00+9se239552 0.0 102138
05:00+9sse119585 0.0 102129
08:00+8sse11954 0.0 102213
11:00+13w25595 0.0 1023830
14:00+16w465466 0.0 10211598
17:00+13nnw377498 0.0 1022517
20:00+10nne23848 0.0 102491